Location: ??????
(30.5519°N, 47.7720°E)
Time: 13:29:10
(UTC+00:00)

Helios 1A Rocket - Visible Passes

Search period start: 16 May 2021 00:00
Search period end: 26 May 2021 00:00
Orbit: 563 x 585 km, 98.3° (Epoch: 15 May)

Date Brightness Start Highest point End Pass type
(mag) Time Alt. Az. Time Alt. Az. Time Alt. Az.
16 May 3.4 16:39:51 10° S 16:43:55 61° WSW 16:48:01 10° NNW visible
17 May 3.6 16:42:58 10° S 16:47:01 56° W 16:51:06 10° NNW visible
18 May 3.7 16:46:06 10° S 16:50:07 51° W 16:54:09 10° NNW visible
19 May 3.9 16:49:14 10° S 16:53:12 47° W 16:57:12 10° NNW visible
20 May 4.0 16:52:22 10° S 16:56:18 43° W 17:00:15 10° NNW visible
21 May 4.2 16:55:31 10° S 16:59:23 39° W 17:03:17 10° NNW visible
22 May 4.4 16:58:41 10° SSW 17:02:29 36° W 17:06:19 10° NNW visible
23 May 4.5 17:01:51 10° SSW 17:05:35 33° W 17:09:21 10° NNW visible
24 May 4.6 17:05:01 10° SSW 17:08:41 31° W 17:12:22 10° NW visible
25 May 4.8 17:08:12 10° SSW 17:11:47 28° W 17:15:22 10° NW visible
